Time,TemperatureF,DewpointF,PressureIn,WindDirection,WindDirectionDegrees,WindSpeedMPH,WindSpeedGustMPH,Humidity,HourlyPrecipIn,Conditions,Clouds,dailyrainin,SoftwareType,DateUTC
2015-04-19 00:00:00,52.0,-99.9,-100.00,ESE,116,8.0,11.0,-999,-99.99,,,-99.99,,2015-04-19 05:00:00,
2015-04-19 00:42:00,52.0,-99.9,-100.00,ESE,116,8.0,11.0,-999,-99.99,,,-99.99,,2015-04-19 05:42:00,
2015-04-19 00:52:00,52.0,-99.9,-100.00,ESE,116,8.0,11.0,-999,-99.99,,,-99.99,,2015-04-19 05:52:00,
2015-04-19 01:00:00,54.0,-99.9,-100.00,SE,125,10.0,15.0,-999,-99.99,,,-99.99,,2015-04-19 06:00:00,
2015-04-19 01:42:00,54.0,-99.9,-100.00,SE,125,10.0,15.0,-999,-99.99,,,-99.99,,2015-04-19 06:42:00,
2015-04-19 01:52:00,54.0,-99.9,-100.00,SE,125,10.0,15.0,-999,-99.99,,,-99.99,,2015-04-19 06:52:00,
2015-04-19 02:00:00,55.0,-99.9,-100.00,SE,139,16.0,20.0,-999,-99.99,,,-99.99,,2015-04-19 07:00:00,
2015-04-19 02:42:00,55.0,-99.9,-100.00,SE,139,16.0,20.0,-999,-99.99,,,-99.99,,2015-04-19 07:42:00,
2015-04-19 02:52:00,55.0,-99.9,-100.00,SE,139,16.0,20.0,-999,-99.99,,,-99.99,,2015-04-19 07:52:00,
2015-04-19 03:00:00,55.0,-99.9,-100.00,SE,130,12.0,17.0,-999,-99.99,,,-99.99,,2015-04-19 08:00:00,
2015-04-19 03:42:00,55.0,-99.9,-100.00,SE,130,12.0,17.0,-999,-99.99,,,-99.99,,2015-04-19 08:42:00,
2015-04-19 03:52:00,55.0,-99.9,-100.00,SE,130,12.0,17.0,-999,-99.99,,,-99.99,,2015-04-19 08:52:00,
2015-04-19 04:00:00,57.0,-99.9,-100.00,SE,141,18.0,22.0,-999,-99.99,,,-99.99,,2015-04-19 09:00:00,
2015-04-19 04:42:00,57.0,-99.9,-100.00,SE,141,18.0,22.0,-999,-99.99,,,-99.99,,2015-04-19 09:42:00,
2015-04-19 04:52:00,57.0,-99.9,-100.00,SE,141,18.0,22.0,-999,-99.99,,,-99.99,,2015-04-19 09:52:00,
2015-04-19 05:00:00,56.0,-99.9,-100.00,SE,142,21.0,24.0,-999,-99.99,,,-99.99,,2015-04-19 10:00:00,
2015-04-19 05:42:00,56.0,-99.9,-100.00,SE,142,21.0,24.0,-999,-99.99,,,-99.99,,2015-04-19 10:42:00,
2015-04-19 05:52:00,56.0,-99.9,-100.00,SE,142,21.0,24.0,-999,-99.99,,,-99.99,,2015-04-19 10:52:00,
2015-04-19 06:00:00,55.0,-99.9,-100.00,SE,133,19.0,23.0,-999,-99.99,,,-99.99,,2015-04-19 11:00:00,
2015-04-19 06:42:00,55.0,-99.9,-100.00,SE,133,19.0,23.0,-999,-99.99,,,-99.99,,2015-04-19 11:42:00,
2015-04-19 06:52:00,55.0,-99.9,-100.00,SE,133,19.0,23.0,-999,-99.99,,,-99.99,,2015-04-19 11:52:00,
2015-04-19 07:42:00,55.0,-99.9,-100.00,SE,128,13.0,21.0,-999,-99.99,,,-99.99,,2015-04-19 12:42:00,
2015-04-19 07:52:00,55.0,-99.9,-100.00,SE,128,13.0,21.0,-999,-99.99,,,-99.99,,2015-04-19 12:52:00,
2015-04-19 08:00:00,56.0,-99.9,-100.00,SE,126,14.0,23.0,-999,-99.99,,,-99.99,,2015-04-19 13:00:00,
2015-04-19 08:42:00,56.0,-99.9,-100.00,SE,126,14.0,23.0,-999,-99.99,,,-99.99,,2015-04-19 13:42:00,
2015-04-19 08:52:00,56.0,-99.9,-100.00,SE,126,14.0,23.0,-999,-99.99,,,-99.99,,2015-04-19 13:52:00,
2015-04-19 09:00:00,58.0,-99.9,-100.00,SE,139,19.0,25.0,-999,-99.99,,,-99.99,,2015-04-19 14:00:00,
2015-04-19 09:52:00,58.0,-99.9,-100.00,SE,139,19.0,25.0,-999,-99.99,,,-99.99,,2015-04-19 14:52:00,
2015-04-19 10:00:00,61.0,-99.9,-100.00,SE,142,22.0,32.0,-999,-99.99,,,-99.99,,2015-04-19 15:00:00,
2015-04-19 10:42:00,61.0,-99.9,-100.00,SE,142,22.0,32.0,-999,-99.99,,,-99.99,,2015-04-19 15:42:00,
2015-04-19 10:52:00,61.0,-99.9,-100.00,SE,142,22.0,32.0,-999,-99.99,,,-99.99,,2015-04-19 15:52:00,
2015-04-19 11:00:00,63.0,-99.9,-100.00,SE,141,21.0,29.0,-999,-99.99,,,-99.99,,2015-04-19 16:00:00,
2015-04-19 11:42:00,63.0,-99.9,-100.00,SE,141,21.0,29.0,-999,-99.99,,,-99.99,,2015-04-19 16:42:00,
2015-04-19 11:52:00,63.0,-99.9,-100.00,SE,141,21.0,29.0,-999,-99.99,,,-99.99,,2015-04-19 16:52:00,
2015-04-19 12:00:00,63.0,-99.9,-100.00,SSE,149,19.0,24.0,-999,-99.99,,,-99.99,,2015-04-19 17:00:00,
2015-04-19 12:43:00,63.0,-99.9,-100.00,SSE,149,19.0,24.0,-999,-99.99,,,-99.99,,2015-04-19 17:43:00,
2015-04-19 12:52:00,63.0,-99.9,-100.00,SSE,149,19.0,24.0,-999,-99.99,,,-99.99,,2015-04-19 17:52:00,
2015-04-19 13:00:00,63.0,-99.9,-100.00,SSE,147,17.0,22.0,-999,-99.99,,,-99.99,,2015-04-19 18:00:00,
2015-04-19 13:43:00,63.0,-99.9,-100.00,SSE,147,17.0,22.0,-999,-99.99,,,-99.99,,2015-04-19 18:43:00,
2015-04-19 13:53:00,63.0,-99.9,-100.00,SSE,147,17.0,22.0,-999,-99.99,,,-99.99,,2015-04-19 18:53:00,
2015-04-19 14:00:00,58.0,-99.9,-100.00,SSW,209,10.0,15.0,-999,-99.99,,,-99.99,,2015-04-19 19:00:00,
2015-04-19 14:43:00,58.0,-99.9,-100.00,SSW,209,10.0,15.0,-999,-99.99,,,-99.99,,2015-04-19 19:43:00,
2015-04-19 14:52:00,58.0,-99.9,-100.00,SSW,209,10.0,15.0,-999,-99.99,,,-99.99,,2015-04-19 19:52:00,
2015-04-19 15:42:00,57.0,-99.9,-100.00,SE,132,5.0,10.0,-999,-99.99,,,-99.99,,2015-04-19 20:42:00,
2015-04-19 15:52:00,57.0,-99.9,-100.00,SE,132,5.0,10.0,-999,-99.99,,,-99.99,,2015-04-19 20:52:00,
2015-04-19 16:00:00,58.0,-99.9,-100.00,ESE,122,3.0,7.0,-999,-99.99,,,-99.99,,2015-04-19 21:00:00,
2015-04-19 16:02:00,57.0,-99.9,-100.00,SE,132,5.0,10.0,-999,-99.99,,,-99.99,,2015-04-19 21:02:00,
2015-04-19 16:42:00,58.0,-99.9,-100.00,ESE,122,3.0,7.0,-999,-99.99,,,-99.99,,2015-04-19 21:42:00,
2015-04-19 16:52:00,58.0,-99.9,-100.00,ESE,122,3.0,7.0,-999,-99.99,,,-99.99,,2015-04-19 21:52:00,